Regional Weather Roundup
Issued by NWS

Home | Current Version | Previous Version | Text Only | Print | Product List | Glossary Off
Versions: 1 2 3 4 5 6 7 8 9 10 11 12 13 14 15 16 17 18 19 20 21 22 23 24 25 26 27 28 29 30 31 32 33 34 35 36 37 38 39 40 41 42 43 44 45 46 47 48 49 50

000
ASUS43 KFSD 301710
RWRSD

WEATHER ROUNDUP FOR SOUTH DAKOTA
NATIONAL WEATHER SERVICE SIOUX FALLS SD
1200 PM CDT SAT AUG 30 2014

NOTE: "FAIR" INDICATES FEW OR NO CLOUDS BELOW 12,000 FEET WITH NO
SIGNIFICANT WEATHER AND/OR OBSTRUCTIONS TO VISIBILITY.


SDZ001>005-009-010-012>017-301800-
NORTHWEST AND NORTH CENTRAL SOUTH DAKOTA

CITY           SKY/WX    TMP DP  RH WIND       PRES   REMARKS
BUFFALO          N/A     70  57  63 SE16      29.77F
FAITH            N/A     67  57  70 SE21G28   29.87F
MOBRIDGE       SUNNY     65  57  75 SE8       29.90F
$$

SDZ012>016-024>037-041>051-057-063-072>074-301800-
SOUTHWEST AND SOUTH CENTRAL SOUTH DAKOTA

CITY           SKY/WX    TMP DP  RH WIND       PRES   REMARKS
RAPID CTY ARPT SUNNY     72  58  61 S14       29.85F
PIERRE         SUNNY     67  57  70 SE9       29.91F
CUSTER         SUNNY     75  47  36 VRB5      29.97F
ELLSWORTH AFB  SUNNY     72  58  60 S17G23    29.84F
PHILIP         SUNNY     73  58  59 SE14G23   29.87F
PINE RIDGE     SUNNY     78  58  49 S18       29.89F
WINNER         FAIR      72  56  57 SE8       29.94F
$$

SDZ004>011-016>023-039-040-301800-
NORTHEAST SOUTH DAKOTA

CITY           SKY/WX    TMP DP  RH WIND       PRES   REMARKS
ABERDEEN       MOSUNNY   64  56  75 E5        29.93S
WATERTOWN      CLOUDY    61  57  87 W3        29.93S
SISSETON         N/A     64  58  80 NW9       29.91S
$$

SDZ017-020-022-023-036>040-048>070-301800-
SOUTHEAST SOUTH DAKOTA

CITY           SKY/WX    TMP DP  RH WIND       PRES   REMARKS
SIOUX FALLS    CLOUDY    65  61  87 NW5       29.94S
HURON          CLOUDY    65  56  72 VRB5      29.93F
CHAMBERLAIN    SUNNY     65  57  76 CALM      29.95F
MITCHELL       CLOUDY    63  58  83 W3        29.95F
YANKTON        CLOUDY    64  57  77 W10       29.96S
$$

ABBREVIATIONS USED IN REMARKS
   TC - TEMPERATURE IN CELSIUS
  WCI - WIND CHILL INDEX
   HX - HEAT INDEX
  VSB - VISIBILITY




USA.gov is the U.S. government's official web portal to all federal, state and local government web resources and services.